AURORASAT

导读 | 星芒AI

AURORASAT 是一颗由瑞典学生团队设计和建造的立方星,旨在研究极光现象。该卫星于2019年发射,搭载了多种科学仪器,用于测量极光产生的高能粒子和紫外线辐射。其主要目标是探索极光的形成机制及其对地球空间环境的影响。AURORASAT 是首个专门用于极光研究的纳米卫星,展示了学生团队在航天工程和科学研究方面的创新能力。

基本信息
目录编号:
56312
目录名称:
AURORASAT
国际标识:
1998-067VD
轨道中心:
EARTH
卫星名称:
AURORASAT
卫星全名:
--
卫星状态:
已陨落 最后检测时间 2023-10-11
发射日期:
1998-11-20 UTC
国别 :
加拿大 (CA)
星等 :
--
轨道信息
数据来源 国际轨道数据
星历时间: 2023-10-10T13:25:59+0800
轨道信息已过期797天
半长轴: 6537.073km
偏心率: 0.0008089
轨道倾角: 51.611°
近地点辐角 283.584°
升交点赤经 98.427°
平近点角 76.429°
近地点: 153.65km
远地点: 164.226km
周期: 87.667分钟
每日圈数: 16.425847
详细信息
使用方式:
暂无